Simultaneous Nadir Overpasses (SNOs) Predictions

Prediction of SNOs between GOES-15 and TERRA Satellite Orbit:

Table of predicted SNOs for the next 14.0 days since TLE Epoch: 2/18/2023
Index Date Time (GOES-15) GOES-15 Lat,Lon TERRA Lat,Lon Distance(km) Time Diff (sec)
1 02/18/2023 06:39:58 0.04,-128.21 0.26,-127.13 123.04 80
2 02/18/2023 18:57:34 -0.04,-128.17 0.79,-132.05 441.35 80
3 02/20/2023 18:41:38 -0.04,-128.14 -0.02,-128.20 6.65 80
4 02/22/2023 18:28:21 -0.03,-128.12 -0.80,-124.34 428.32 80
5 02/23/2023 06:46:08 0.04,-128.14 -0.22,-129.31 133.90 80
6 02/25/2023 06:32:51 0.04,-128.11 0.60,-125.46 300.98 80
7 02/25/2023 18:50:28 -0.05,-128.07 0.43,-130.39 263.19 80
8 02/27/2023 18:37:10 -0.05,-128.04 -0.36,-126.53 171.05 80
9 02/28/2023 06:54:57 0.06,-128.05 -0.63,-131.50 391.77 80
10 03/02/2023 06:41:38 0.06,-128.01 0.14,-127.64 42.25 80
